This demonstration page uses our WeatherBlox Daily Observations layout. Learn more.

Left ArrowRight Arrow

Hourly Observations for April 13, 2021

Temp ( °F °C ) Dew Point ( °F °C ) Humidity (%) Winds ( mph kmh ) Pressure ( in mb ) Visibility ( mi km ) Precip ( " mm )
12:53 am 00:53 Cloudy 28 -2.2 23 -5 81 81 SSE 3 6 30.55 1035 10 16 0.00 0.00
1:53 am 01:53 Mostly Clear 25 -3.9 20 -6.7 81 81 SW 7 11 30.55 1035 10 16 0.00 0.00
2:53 am 02:53 Cloudy 26 -3.3 21 -6.1 81 81 WNW 7 11 30.55 1035 10 16 0.00 0.00
3:53 am 03:53 Cloudy 27 -2.8 21 -6.1 78 78 WSW 7 11 30.54 1034 10 16 0.00 0.00
4:53 am 04:53 Cloudy 26 -3.3 21 -6.1 81 81 WNW 7 11 30.55 1034 10 16 0.00 0.00
5:53 am 05:53 Cloudy 24 -4.4 20 -6.7 84 84 SW 5 7 30.55 1035 10 16 0.00 0.00
6:53 am 06:53 Cloudy 24 -4.4 20 -6.7 84 84 WSW 6 9 30.56 1035 10 16 0.00 0.00
7:53 am 07:53 Cloudy 26 -3.3 20 -6.7 78 78 SW 6 9 30.56 1035 10 16 0.00 0.00
8:53 am 08:53 Cloudy 30 -1.1 17 -8.3 58 58 Calm 30.55 1035 10 16 0.00 0.00
9:53 am 09:53 Cloudy 32 0 12 -11.1 43 43 N 12 19 30.55 1035 10 16 0.00 0.00
10:53 am 10:53 Cloudy 33 0.6 15 -9.4 47 47 NNE 8 13 30.56 1035 10 16 0.00 0.00
11:53 am 11:53 Cloudy 34 1.1 17 -8.3 50 50 N 16 26 30.56 1035 8 13 0.00 0.00
12:14 pm 12:14 Cloudy with Light Snow 32 0 20 -6.7 61 61 N 10 17 30.57 1035 4 6 0.00 0.00
12:31 pm 12:31 Cloudy 35 1.7 18 -7.8 50 50 NNW 9 15 30.55 1035 10 16 0.00 0.00
12:53 pm 12:53 Cloudy 36 2.2 17 -8.3 46 46 N 12 19 30.55 1035 10 16 0.00 0.00
1:53 pm 13:53 Cloudy 39 3.9 12 -11.1 33 33 NNE 18 30 30.53 1034 10 16 0.00 0.00
2:53 pm 14:53 Cloudy 39 3.9 15 -9.4 38 38 NNE 13 20 30.51 1033 10 16 0.00 0.00
3:53 pm 15:53 Cloudy 39 3.9 18 -7.8 43 43 NNE 17 28 30.50 1033 10 16 0.00 0.00
4:53 pm 16:53 Cloudy 36 2.2 22 -5.6 57 57 N 8 13 30.51 1033 10 16 0.00 0.00
5:31 pm 17:31 Cloudy with Light Snow 33 0.6 27 -2.8 78 78 ENE 15 24 30.54 1034 2 3 0.00 0.00
5:43 pm 17:43 Cloudy with Light Snow 33 0.6 27 -2.8 78 78 NE 10 17 30.54 1034 3 5 0.00 0.00
5:53 pm 17:53 Cloudy with Haze 34 1.1 27 -2.8 76 76 NE 14 22 30.53 1034 5 8 0.00 0.00
6:17 pm 18:17 Cloudy with Light Snow 32 0 28 -2.2 85 85 NE 12 19 30.54 1034 2 3 0.00 0.00
6:30 pm 18:30 Cloudy with Light Snow 33 0.6 28 -2.2 82 82 NE 9 15 30.54 1034 4 6 0.00 0.00
6:45 pm 18:45 Cloudy with Haze 32 0 27 -2.8 82 82 NE 8 13 30.53 1034 4 6 0.00 0.00
6:53 pm 18:53 Cloudy with Haze 33 0.6 28 -2.2 82 82 NE 5 7 30.53 1034 5 8 0.00 0.00
7:53 pm 19:53 Cloudy with Mist and Fog 32 0 28 -2.2 85 85 Calm 30.53 1034 5 8 0.00 0.00
8:36 pm 20:36 Cloudy with Light Snow 32 0 29 -1.7 88 88 NE 7 11 30.53 1034 3 5 0.00 0.00
8:53 pm 20:53 Cloudy 31 -0.6 28 -2.2 89 89 NE 3 6 30.53 1034 8 13 0.00 0.00
9:24 pm 21:24 Cloudy with Light Snow 31 -0.6 27 -2.8 85 85 NE 8 13 30.55 1034 2 3 0.01 0.25
9:37 pm 21:37 Cloudy with Light Snow 30 -1.1 27 -2.8 88 88 NNE 7 11 30.55 1035 2 3 0.01 0.25
9:53 pm 21:53 Cloudy with Light Snow 30 -1.1 28 -2.2 92 92 N 5 7 30.53 1034 2 3 0.02 0.51
10:14 pm 22:14 Cloudy with Light Snow 30 -1 27 -3 86 86 N 6 9 30.54 1034 3 5 0.00 0.00
10:40 pm 22:40 Cloudy with Light Snow 30 -1.1 27 -2.8 88 88 N 6 9 30.54 1034 3 4 0.01 0.25
10:49 pm 22:49 Cloudy with Light Snow 30 -1 27 -3 86 86 NNW 5 7 30.54 1034 3 5 0.01 0.25
10:53 pm 22:53 Cloudy with Light Snow 30 -1.1 27 -2.8 88 88 NNW 5 7 30.52 1033 3 4 0.01 0.25
11:13 pm 23:13 Cloudy with Light Snow 30 -1.1 28 -2.2 92 92 NW 3 6 30.53 1034 3 5 0.00 0.00
11:33 pm 23:33 Cloudy 30 -1.1 27 -2.8 88 88 N 5 7 30.53 1034 9 14 0.01 0.25
11:53 pm 23:53 Cloudy 30 -1.1 27 -2.8 88 88 N 6 9 30.51 1033 8 13 0.01 0.25

Powered by AerisWeather